Location: Bruderhein
(53.8035°N, 112.9265°W)
Time: 02:12:01
(UTC+00:00)

STRAND 1 - Pass Details

Date: 05 April 2023
Orbit: 767 x 779 km, 98.4° (Epoch: 31 May)

Event Time Altitude Azimuth Distance (km) Brightness Sun altitude
Rises 10:55:47 0° 97° (E) 3,250 ? -16.8°
Reaches altitude 10° 10:59:32 10° 68° (ENE) 2,324 ? -16.4°
Maximum altitude 11:01:31 12° 45° (NE) 2,167 ? -16.2°
Drops below altitude 10° 11:03:30 10° 22° (NNE) 2,326 ? -15.9°
Sets 11:07:14 0° 354° (N) 3,256 ? -15.5°
